Weather Roundup
Issued by NWS Springfield, MO

Home | Current Version | Previous Version | Text Only | Print | Product List | Glossary On
Versions: 1 2 3 4 5 6 7 8 9 10 11 12 13 14 15 16 17 18 19 20 21 22 23 24 25 26 27 28 29 30 31 32 33 34 35 36 37 38 39 40 41 42 43 44 45 46 47 48 49 50
000
NZUS99 KSGF 021207
HRRSGF

HOURLY WEATHER
NATIONAL WEATHER SERVICE SPRINGFIELD MO
700 AM CDT TUE JUN 02 2015

......SGF CWA......

CITY           SKY/WX    TMP DP  RH WIND       PRES   REMARKS
SPRINGFIELD    PTSUNNY   58  55  90 SE6       30.11R
6HR MIN TEMP:  55; 6HR MAX TEMP:  58;

JOPLIN         CLOUDY    58  57  97 E7        30.09R
6HR MIN TEMP:  55; 6HR MAX TEMP:  58;

WEST PLAINS    MOSUNNY   58  55  90 NE3       30.13S FOG
6HR MIN TEMP:  58; 6HR MAX TEMP:  59;

ROLLA          CLOUDY    58  56  93 CALM      30.12R FOG
6HR MIN TEMP:  57; 6HR MAX TEMP:  58; 6HR PCP: TRACE;

OSAGE BEACH    CLOUDY    59  55  88 CALM      30.14R
BRANSON        CLOUDY    59  57  94 SE5       30.12R

......SURROUNDING SGF CWA......

CITY           SKY/WX    TMP DP  RH WIND       PRES   REMARKS
CHANUTE        CLOUDY    58  55  90 E9        30.07R
PARSONS        CLOUDY    60  57  89 CALM      30.08R
COFFEYVILLE    PTCLDY    60  58  92 NE3       30.06R
EMPORIA        CLOUDY    57  55  93 SE10      30.06S
GROVE OK       MOCLDY    63  63 100 CALM      30.08R
ROGERS AR      CLOUDY    62  60  93 E7        30.09S
SILOAM SPRINGS MOCLDY    61  54  77 E3        30.09S
HARRISON AR    CLOUDY    59  58  96 SE7       30.12R FOG
NEAR YELLVILLE CLOUDY    61  57  88 SE3       30.10S

......KANSAS AND MISSOURI......

CITY           SKY/WX    TMP DP  RH WIND       PRES   REMARKS
KANSAS CTY INT CLOUDY    59  53  80 SE8       30.11R
DOWNTOWN KC    CLOUDY    60  53  77 SE3       30.11R
COLUMBIA       CLOUDY    59  56  89 CALM      30.14R
SEDALIA        CLOUDY    60  55  83 E3        30.14R
ST JOSEPH      CLOUDY    59  54  83 SE7       30.10R
ST LOUIS       PTSUNNY   61  56  83 NE5       30.15S
SPIRIT OF STL  SUNNY     60  59  96 CALM      30.13S
KIRKSVILLE     CLOUDY    56  55  97 E3        30.15R
WICHITA        MOCLDY    64  58  80 SE12      30.01S
TOPEKA         CLOUDY    58  55  90 SE6       30.09R
OLATHE         MOSUNNY   57  54  89 SE6       30.10R

......TENNESSEE......

CITY           SKY/WX    TMP DP  RH WIND       PRES   REMARKS
MEMPHIS        CLOUDY    63  61  94 N6        30.08R FOG
NASHVILLE      CLOUDY    61  58  90 N9        30.09R

......ARKANSAS.......

CITY           SKY/WX    TMP DP  RH WIND       PRES   REMARKS
FAYETTEVILLE   PTSUNNY   58  58 100 CALM      30.08S FOG
FT SMITH       MOCLDY    67  63  87 E3        30.07R
LITTLE ROCK    CLOUDY    66  61  84 NE5       30.10R

......OKLAHOMA.......

CITY           SKY/WX    TMP DP  RH WIND       PRES   REMARKS
TULSA          CLOUDY    66  63  90 CALM      30.03S
PONCA CITY     CLOUDY    65  60  84 SE10      30.02S
MCALESTER      CLOUDY    67  62  84 CALM      30.06R
OKLAHOMA CITY  MOCLDY    66  61  84 S9        30.02R

......IOWA............

CITY           SKY/WX    TMP DP  RH WIND       PRES   REMARKS
DES MOINES     PTSUNNY   56  52  86 S7        30.13R
QUAD CITIES    SUNNY     51  46  83 E6        30.19R

......ILLINOIS........

CITY           SKY/WX    TMP DP  RH WIND       PRES   REMARKS
QUINCY         CLOUDY    57  54  89 E9        30.14S
CHICAGO        MOSUNNY   48  42  80 CALM      30.20R




USA.gov is the U.S. government's official web portal to all federal, state and local government web resources and services.